Topeka, KS

10:20 PM CDT on October 23, 2019 (GMT -0500)
Billard Municipal

Weather History for KTOP - September, 2019

Change the Weather History Date:

Wednesday, September 18, 2019

  Actual Average Record
Temperature  
Mean Temperature 80 °F 67 °F  
Max Temperature 92 °F 80 °F 101 °F (1925)
Min Temperature 68 °F 55 °F 35 °F (1973)
Degree Days  
Heating Degree Days 0 2  
Month to date heating degree days 0 18  
Since 1 July heating degree days 0 20  
Cooling Degree Days 15 5  
Month to date cooling degree days 235 125  
Year to date cooling degree days 1481 1353  
Growing Degree Days 30 (Base 50)    
Moisture  
Dew Point 67 °F    
Average Humidity 67    
Maximum Humidity 90    
Minimum Humidity 44    
Precipitation  
Precipitation 0.00 in 0.13 in 1.40 in (1922)
Month to date precipitation 1.22 2.20  
Year to date precipitation 42.11 28.77  
Snow  
Snow 0.00 in 0.00 in T in (2002)
Month to date snowfall 0.0 0.0  
Year to date snowfall 18.5 11.3  
Since 1 July snowfall T 0.0  
Snow Depth 0.00 in    
Sea Level Pressure  
Sea Level Pressure 29.93 in    
Wind  
Wind Speed 6 mph (South)    
Max Wind Speed 20 mph    
Max Gust Speed 29 mph    
Visibility 10 miles    
Events      
T = Trace of Precipitation, MM = Missing Value Source: NWS Daily Summary

Daily Weather History Graph

Daily Weather History Graph

Search for Another Location

Airport or City:

Astronomy

Sep. 18, 2019 Rise Set
Actual Time 7:06 AM CDT 7:26 PM CDT
Civil Twilight 6:39 AM CDT 7:52 PM CDT
Nautical Twilight 6:08 AM CDT 8:24 PM CDT
Astronomical Twilight 5:36 AM CDT 8:56 PM CDT
Moon 10:02 PM CDT (9/18) 11:08 AM CDT (9/18)
Length of Visible Light 13h 13m
Length of Day
12h 19m
Waning Gibbous, 82% of the Moon is Illuminated
Sep 18
Waning Gibbous
Sep 21
Last Quarter
Sep 28
New
Oct 5
First Quarter
Oct 13
Full

Hourly Weather History & Observations

Time (CDT) Temp. Heat Index Dew Point Humidity Pressure Visibility Wind Dir Wind Speed Gust Speed Precip Events Conditions
12:53 AM 73.0 °F - 66.0 °F 79% 29.92 in 10.0 mi SSE 3.5 mph - N/A   Clear
1:53 AM 72.0 °F - 66.0 °F 81% 29.93 in 10.0 mi Calm Calm - N/A   Clear
2:53 AM 71.1 °F - 66.0 °F 84% 29.93 in 10.0 mi Calm Calm - N/A   Clear
3:53 AM 70.0 °F - 64.9 °F 84% 29.92 in 10.0 mi Calm Calm - N/A   Clear
4:53 AM 71.1 °F - 66.0 °F 84% 29.91 in 10.0 mi SSE 4.6 mph - N/A   Clear
5:53 AM 70.0 °F - 66.0 °F 87% 29.92 in 10.0 mi Calm Calm - N/A   Clear
6:53 AM 70.0 °F - 64.9 °F 84% 29.92 in 10.0 mi Calm Calm - N/A   Clear
7:53 AM 73.0 °F - 66.0 °F 79% 29.93 in 10.0 mi South 4.6 mph - N/A   Clear
8:53 AM 77.0 °F - 66.9 °F 71% 29.94 in 10.0 mi South 6.9 mph - N/A   Clear
9:53 AM 82.0 °F 84.9 °F 68.0 °F 62% 29.94 in 10.0 mi SSW 6.9 mph - N/A   Clear
10:53 AM 84.9 °F 88.2 °F 68.0 °F 57% 29.94 in 10.0 mi SSW 10.4 mph 19.6 mph N/A   Clear
11:53 AM 88.0 °F 91.4 °F 68.0 °F 51% 29.94 in 10.0 mi South 12.7 mph 23.0 mph N/A   Clear
12:53 PM 90.0 °F 92.8 °F 66.9 °F 46% 29.94 in 10.0 mi SSW 15.0 mph 24.2 mph N/A   Clear
1:53 PM 91.0 °F 95.2 °F 68.0 °F 47% 29.93 in 10.0 mi South 11.5 mph 20.7 mph N/A   Partly Cloudy
2:53 PM 91.9 °F 95.4 °F 66.9 °F 44% 29.92 in 10.0 mi South 12.7 mph 23.0 mph N/A   Scattered Clouds
3:53 PM 90.0 °F 92.8 °F 66.9 °F 46% 29.91 in 10.0 mi South 11.5 mph - N/A   Partly Cloudy
4:53 PM 91.0 °F 93.8 °F 66.0 °F 44% 29.90 in 10.0 mi SSW 10.4 mph - N/A   Clear
5:53 PM 90.0 °F 92.8 °F 66.9 °F 46% 29.90 in 10.0 mi South 8.1 mph - N/A   Partly Cloudy
6:53 PM 86.0 °F 90.1 °F 69.1 °F 57% 29.90 in 10.0 mi SSE 5.8 mph - N/A   Clear
7:53 PM 82.0 °F 85.5 °F 69.1 °F 65% 29.91 in 10.0 mi SSE 4.6 mph - N/A   Clear
8:53 PM 78.1 °F - 69.1 °F 74% 29.94 in 10.0 mi Calm Calm - N/A   Clear
9:53 PM 75.0 °F - 68.0 °F 79% 29.95 in 10.0 mi Calm Calm - N/A   Clear
10:53 PM 75.0 °F - 68.0 °F 79% 29.94 in 10.0 mi SE 4.6 mph - N/A   Clear
11:53 PM 75.9 °F - 68.0 °F 76% 29.94 in 10.0 mi SSE 3.5 mph - N/A   Clear